Soldotna, AK

2:02 AM AKDT on August 20, 2017 (GMT -0800)
Soldotna

Weather History for PASX - June, 2014

Change the Weather History Date:

Tuesday, June 3, 2014

  Actual Average Record
Temperature  
Mean Temperature 48 °F -  
Max Temperature 64 °F 57 °F 76 °F (1957)
Min Temperature 32 °F 41 °F 31 °F (1956)
Degree Days  
Heating Degree Days 17    
Moisture  
Dew Point 34 °F    
Average Humidity 57    
Maximum Humidity 87    
Minimum Humidity 34    
Precipitation  
Precipitation 0.00 in - - ()
Sea Level Pressure  
Sea Level Pressure 30.18 in    
Wind  
Wind Speed 3 mph (WNW)    
Max Wind Speed 17 mph    
Max Gust Speed 17 mph    
Visibility 10 miles    
Events      
Averages and records for this station are not official NWS values.
T = Trace of Precipitation, MM = Missing Value Source: NWS Daily Summary

Daily Weather History Graph

Daily Weather History Graph

Search for Another Location

Airport or City:

Trip Planner

Search our weather history database for the weather conditions in past years. The results will help you decide how hot, cold, wet, or windy it might be!

Date:

Astronomy

Jun. 03, 2014 Rise Set
Actual Time 4:45 AM AKDT 11:20 PM AKDT
Civil Twilight 3:11 AM AKDT 12:56 AM AKDT
Nautical Twilight Sun does not set Sun does not set
Astronomical Twilight Sun does not set Sun does not set
Moon 11:29 AM AKDT (6/3) 1:47 AM AKDT (6/3)
Length of Visible Light 21h 44m
Length of Day
18h 35m
Waxing Crescent, 31% of the Moon is Illuminated
Jun 3
Waxing Crescent
Jun 5
First Quarter
Jun 12
Full
Jun 19
Last Quarter
Jun 27
New

Hourly Weather History & Observations

Time (AKDT) Temp. Windchill Dew Point Humidity Pressure Visibility Wind Dir Wind Speed Gust Speed Precip Events Conditions
12:16 AM - - - N/A% 30.21 in 10.0 mi Calm Calm - N/A   Clear
12:36 AM - - - N/A% 30.21 in 10.0 mi Calm Calm - N/A   Clear
12:56 AM 37.4 °F - 28.4 °F 70% 30.22 in 10.0 mi Calm Calm - N/A   Clear
1:16 AM - - - N/A% 30.21 in 10.0 mi Calm Calm - N/A   Clear
1:36 AM - - - N/A% 30.21 in 10.0 mi Calm Calm - N/A   Clear
1:56 AM - - - N/A% 30.21 in 10.0 mi Calm Calm - N/A   Clear
2:16 AM - - - N/A% 30.21 in 10.0 mi Calm Calm - N/A   Clear
2:36 AM - - - N/A% 30.21 in 10.0 mi Calm Calm - N/A   Clear
2:56 AM - - - N/A% 30.21 in 10.0 mi NE 3.5 mph - N/A   Clear
3:16 AM - - - N/A% 30.21 in 10.0 mi East 3.5 mph - N/A   Clear
3:36 AM 33.8 °F 30.8 °F 28.4 °F 81% 30.22 in 10.0 mi SE 3.5 mph - N/A   Clear
3:56 AM - - - N/A% 30.21 in 10.0 mi ESE 3.5 mph - N/A   Clear
4:16 AM - - - N/A% 30.22 in 10.0 mi Calm Calm - N/A   Clear
4:36 AM - - - N/A% 30.22 in 10.0 mi Calm Calm - N/A   Clear
4:56 AM - - - N/A% 30.22 in 10.0 mi Calm Calm - N/A   Clear
5:16 AM - - - N/A% 30.22 in 10.0 mi Calm Calm - N/A   Clear
5:36 AM - - - N/A% 30.23 in 10.0 mi Calm Calm - N/A   Clear
5:56 AM 32.0 °F - 26.6 °F 80% 30.23 in 10.0 mi Calm Calm - N/A   Clear
6:16 AM 32.0 °F - 28.4 °F 87% 30.23 in 10.0 mi Calm Calm - N/A   Clear
6:36 AM - - - N/A% 30.23 in 10.0 mi Calm Calm - N/A   Clear
6:56 AM 35.6 °F - 30.2 °F 81% 30.23 in 10.0 mi Calm Calm - N/A   Clear
7:16 AM 39.2 °F - 30.2 °F 70% 30.23 in 10.0 mi Calm Calm - N/A   Clear
7:36 AM 42.8 °F - 33.8 °F 70% 30.23 in 10.0 mi Calm Calm - N/A   Clear
7:56 AM 44.6 °F - 33.8 °F 66% 30.23 in 10.0 mi Calm Calm - N/A   Clear
8:16 AM 46.4 °F - 35.6 °F 66% 30.23 in 10.0 mi Calm Calm - N/A   Clear
8:36 AM 48.2 °F - 37.4 °F 66% 30.22 in 10.0 mi Calm Calm - N/A   Clear
8:56 AM 51.8 °F - 35.6 °F 54% 30.22 in 10.0 mi Calm Calm - N/A   Clear
9:16 AM 53.6 °F - 37.4 °F 54% 30.22 in 10.0 mi Calm Calm - N/A   Clear
9:36 AM 53.6 °F - 37.4 °F 54% 30.22 in 10.0 mi Calm Calm - N/A   Clear
9:56 AM 53.6 °F - 35.6 °F 51% 30.22 in 10.0 mi East 3.5 mph - N/A   Clear
10:16 AM - - - N/A% 30.21 in 10.0 mi NNE 3.5 mph - N/A   Clear
10:36 AM 55.4 °F - 35.6 °F 47% 30.21 in 10.0 mi NNW 4.6 mph - N/A   Clear
10:56 AM 57.2 °F - 37.4 °F 48% 30.21 in 10.0 mi NE 4.6 mph - N/A   Clear
11:16 AM 57.2 °F - 37.4 °F 48% 30.21 in 10.0 mi NNE 6.9 mph - N/A   Clear
11:56 AM - - - N/A% 30.19 in 10.0 mi East 6.9 mph - N/A   Clear
12:16 PM - - - N/A% 30.19 in 10.0 mi NW 3.5 mph - N/A   Mostly Cloudy
12:36 PM - - - N/A% 30.19 in 10.0 mi WNW 6.9 mph - N/A   Mostly Cloudy
12:56 PM - - - N/A% 30.18 in 10.0 mi WNW 6.9 mph - N/A   Partly Cloudy
1:16 PM - - - N/A% 30.18 in 10.0 mi WNW 10.4 mph - N/A   Clear
1:36 PM - - - N/A% 30.18 in 10.0 mi WNW 9.2 mph - N/A   Clear
1:56 PM 62.6 °F - 35.6 °F 37% 30.18 in 10.0 mi North 8.1 mph - N/A   Clear
2:16 PM - - - N/A% 30.17 in 10.0 mi North 6.9 mph - N/A   Clear
2:36 PM - - - N/A% 30.17 in 10.0 mi NE 9.2 mph - N/A   Clear
2:56 PM 62.6 °F - 35.6 °F 37% 30.16 in 10.0 mi NNW 8.1 mph - N/A   Clear
3:16 PM - - - N/A% 30.16 in 10.0 mi NW 9.2 mph - N/A   Scattered Clouds
3:36 PM - - - N/A% 30.15 in 10.0 mi NW 11.5 mph 17.3 mph N/A   Partly Cloudy
3:56 PM 64.4 °F - 35.6 °F 34% 30.15 in 10.0 mi WNW 8.1 mph 16.1 mph N/A   Partly Cloudy
4:16 PM - - - N/A% 30.15 in 10.0 mi NE 10.4 mph - N/A   Partly Cloudy
5:16 PM - - - N/A% 30.14 in 10.0 mi West 17.3 mph - N/A   Clear
5:36 PM - - - N/A% 30.13 in 10.0 mi WSW 15.0 mph - N/A   Clear
5:56 PM - - - N/A% 30.13 in 10.0 mi West 17.3 mph - N/A   Clear
6:16 PM - - - N/A% 30.13 in 10.0 mi WSW 15.0 mph - N/A   Clear
6:36 PM - - - N/A% 30.13 in 10.0 mi West 16.1 mph - N/A   Clear
7:16 PM - - - N/A% 30.13 in 10.0 mi West 16.1 mph - N/A   Clear
7:36 PM - - - N/A% 30.13 in 10.0 mi WNW 13.8 mph - N/A   Clear
7:56 PM - - - N/A% 30.13 in 10.0 mi West 13.8 mph - N/A   Clear
8:16 PM - - - N/A% 30.13 in 10.0 mi West 12.7 mph - N/A   Clear
8:36 PM 60.8 °F - 33.8 °F 36% 30.13 in 10.0 mi West 12.7 mph - N/A   Clear
9:16 PM - - - N/A% 30.13 in 10.0 mi WNW 10.4 mph - N/A   Clear
9:36 PM - - - N/A% 30.13 in 10.0 mi West 6.9 mph - N/A   Clear
9:56 PM 57.2 °F - 33.8 °F 41% 30.14 in 10.0 mi West 8.1 mph - N/A   Clear
10:16 PM 55.4 °F - 33.8 °F 44% 30.14 in 10.0 mi West 6.9 mph - N/A   Clear
10:36 PM - - - N/A% 30.13 in 10.0 mi West 3.5 mph - N/A   Clear
10:56 PM - - - N/A% 30.14 in 10.0 mi Calm Calm - N/A   Clear
11:16 PM - - - N/A% 30.14 in 10.0 mi WSW 3.5 mph - N/A   Clear
11:36 PM 51.8 °F - 33.8 °F 50% 30.14 in 10.0 mi Calm Calm - N/A   Clear
11:56 PM 51.8 °F - 33.8 °F 50% 30.14 in 10.0 mi South 3.5 mph - N/A   Clear